Flag for United Kingdom Weather past 2 weeks in Aylesbury, England, United Kingdom

Now
37 °F

Chilly.


Feels Like: 32 °F
Forecast: 37 / 46 °F
Wind: 6 mph from Northwest

Location: High Wicombe Hqstc

Current Time: Jan 27, 2015 at 1:46:34 AM

Latest Report: Jan 27, 2015 at 1:00 AM


Visibility: 14 mi

Pressure: 30.39 "Hg

Humidity: 85%

Dew point: 33 °F

Location of AylesburyLocation

Historic Weather in Aylesbury — Graph

°F

Aylesbury temperature yesterday

Maximum temperature yesterday: 47 °F (at 9:00 AM)
Minimum temperature yesterday: 38 °F (at 11:00 PM)
Average temperature yesterday: 44 °F

Past Weeks' High & Low Weather Summary

 TemperatureHumidityPressure
High51 °F (Jan 13, 12:00 AM)100% (Jan 24, 1:00 AM)30.49 "Hg (Jan 24, 1:00 AM)
Low26 °F (Jan 23, 9:00 AM)63% (Jan 15, 5:00 PM)29.12 "Hg (Jan 15, 2:00 AM)
Average38 °F85%29.91 "Hg
* Reported Midnight between Jan 11 and Jan 12 — Midnight between Jan 26 and Jan 27, Aylesbury, Weather by CustomWeather, © 2014

Note: Actual official high and low records may vary slightly from our data, if they occured in-between our weather recording intervals... More about our weather records

Advertising

Aylesbury weather history for previous 24 hours

 ConditionsComfort  
Time TempWeatherWind HumidityBarometerVisibility
12:00 AM
Jan 27
37 °FChilly.6 mph84%30.38 "Hg12 mi
11:00 PM
Jan 26
38 °FChilly.7 mph82%30.37 "Hg14 mi
10:00 PM38 °FChilly.7 mph82%30.37 "Hg15 mi
8:00 PM40 °FChilly.5 mph79%30.34 "Hg17 mi
7:00 PM40 °FQuite cool.6 mph80%30.33 "Hg16 mi
6:00 PM40 °FQuite cool.5 mph80%30.31 "Hg17 mi
5:00 PM42 °FQuite cool.7 mph76%30.28 "Hg19 mi
4:00 PM42 °FQuite cool.7 mph73%30.27 "Hg19 mi
3:00 PM43 °FQuite cool.8 mph70%30.25 "Hg22 mi
2:00 PM44 °FQuite cool.7 mph69%30.23 "Hg28 mi
1:00 PM45 °FCool.8 mph75%30.24 "Hg16 mi
12:00 PM45 °FCool.7 mph82%30.22 "Hg19 mi
11:00 AM46 °FCool.8 mph86%30.21 "Hg25 mi
10:00 AM46 °FCool.8 mph97%30.19 "Hg9 mi
9:00 AM47 °FCool.9 mph99%30.18 "Hg7 mi
8:00 AM46 °FFog.8 mph99%30.16 "Hg4 mi
7:00 AM46 °FCool.9 mph97%30.16 "Hg9 mi
6:00 AM46 °FDrizzle. Overcast.9 mph97%30.16 "Hg7 mi
5:00 AM47 °FCool.9 mph94%30.18 "Hg13 mi
4:00 AM46 °FCool.9 mph96%30.19 "Hg7 mi
3:00 AM46 °FCool.8 mph93%30.21 "Hg31 mi
2:00 AM46 °FCool.8 mph93%30.23 "Hg25 mi
1:00 AM46 °FCool.8 mph94%30.25 "Hg14 mi
Weather by CustomWeather, © 2014

See weather overviewHow to use our weather pages